CAPE
0 0 0 0 0 0 0 0 0 0 0 0 0 0 0 0 0 0 0 0 0 0
0 0 0 0 0 0 0 0 0 0 0 0 0 0 0 0 0 0 0 0 0 0
0 0 0 0 0 0 0 0 0 0 0 0 0 0 0 0 0 0 0 0 0 0
0 0 0 0 0 0 0 0 0 0 0 0 0 0 0 0 0 0 0 0 0 0
0 0 0 0 0 0 0 0 0 0 0 0 0 0 0 0 0 0 0 0 0 0
0 0 0 0 0 0 0 0 0 0 0 0 0 0 0 0 0 0 0 0 0 0
0 0 0 0 0 0 0 0 0 0 0 0 0 0 0 0 0 0 0 0 0 0
0 0 0 0 0 0 0 0 0 0 0 0 0 0 0 0 0 0 0 0 0 0
0 0 0 0 0 0 0 0 0 0 0 0 0 0 0 0 0 0 0 0 0 0
0 0 0 0 0 0 0 0 0 0 0 0 0 0 0 0 0 0 0 0 0 0
0 0 0 0 0 0 0 0 0 0 0 0 0 0 0 0 0 0 0 0 0 0
0 0 0 0 0 0 0 0 0 0 0 0 0 0 0 0 0 0 0 0 0 0
0 0 0 0 0 0 0 0 0 0 0 0 0 0 0 0 0 0 0 0 0 0
0 0 0 0 0 0 0 0 0 0 0 0 0 0 0 0 0 0 0 0 0 0
CIN
-0 -0 -0 -0 -0 -0 -0 -0 -0 -0 -0 -0 -0 -0 -0 -0 -0 -0 -0 -0 -0 -0
-0 -0 -0 -0 -0 -0 -0 -0 -0 -0 -0 -0 -0 -0 -0 -0 -0 -0 -0 -0 -0 -0
-0 -0 -0 -0 -0 -0 -0 -0 -0 -0 -0 -0 -0 -0 -0 -0 -0 -0 -0 -0 -0 -0
-0 -0 -0 -0 -0 -0 -0 -0 -0 -0 -0 -0 -0 -0 -0 -0 -0 -0 -0 -0 -0 -0
-0 -0 -0 -0 -0 -0 -0 -0 -0 -0 -0 -0 -0 -0 -0 -0 -0 -0 -0 -0 -0 -0
-0 -0 -0 -0 -0 -0 -0 -0 -0 -0 -0 -0 -0 -0 -0 -0 -0 -0 -0 -0 -0 -0
-0 -0 -0 -0 -0 -0 -0 -0 -0 -0 -0 -0 -0 -0 -0 -0 -0 -0 -0 -0 -0 -0
-0 -0 -0 -0 -0 -0 -0 -0 -0 -0 -0 -0 -0 -0 -0 -0 -0 -0 -0 -0 -0 -0
-0 -0 -0 -0 -0 -0 -0 -0 -0 -0 -0 -0 -0 -0 -0 -0 -0 -0 -0 -0 -0 -0
-0 -0 -0 -0 -0 -0 -0 -0 -0 -0 -0 -0 -0 -0 -0 -0 -0 -0 -0 -0 -0 -0
-0 -0 -0 -0 -0 -0 -0 -0 -0 -0 -0 -0 -0 -0 -0 -0 -0 -0 -0 -0 -0 -0
-0 -0 -0 -0 -0 -0 -0 -0 -0 -0 -0 -0 -0 -0 -0 -0 -0 -0 -0 -0 -0 -0
-0 -0 -0 -0 -0 -0 -0 -0 -0 -0 -0 -0 -0 -0 -0 -0 -0 -0 -0 -0 -0 -0
-0 -0 -0 -0 -0 -0 -0 -0 -0 -0 -0 -0 -0 -0 -0 -0 -0 -0 -0 -0 -0 -0
Wind_Speed
18 18 18 18 18 18 18 18 18 18 18 17 17 17 17 19 20 21 22 24 25 26
21 21 21 20 20 20 19 19 18 18 18 18 17 17 17 19 21 22 23 23 24 26
24 24 24 23 22 22 21 19 18 18 18 18 17 17 18 20 20 21 23 24 25 25
28 26 26 25 24 23 21 20 20 19 18 18 18 18 19 20 20 21 21 23 25 27
29 29 29 29 26 24 24 22 21 20 19 19 18 17 18 20 19 20 21 23 24 26
30 30 30 30 29 27 25 23 22 21 21 20 19 19 19 19 19 20 21 21 23 23
30 30 30 28 28 28 28 27 25 23 22 22 20 20 19 19 19 19 20 20 21 22
31 31 30 28 27 26 25 25 24 24 23 22 21 20 19 19 19 20 20 20 20 22
33 32 30 28 26 25 24 23 24 25 24 23 21 20 18 17 17 17 18 21 21 22
34 33 32 29 26 25 24 24 24 24 23 22 20 18 16 15 15 16 19 20 21 24
34 33 30 27 26 25 24 24 24 24 23 21 19 18 16 14 15 16 16 17 19 23
31 30 29 26 25 23 23 23 22 23 22 21 20 18 16 15 17 18 18 18 19 21
27 28 27 23 23 22 22 22 21 22 22 21 20 18 18 16 18 19 19 18 18 20
26 25 24 23 23 23 24 24 23 22 22 21 21 20 19 19 20 20 19 20 20 19
Wind_Direction
243 254 258 261 266 265 267 270 270 268 270 273 279 286 293 300 307 312 313 313 314 313
253 256 258 265 267 269 273 274 267 267 268 270 273 278 287 295 302 308 310 312 313 312
257 258 262 266 266 269 271 270 265 262 264 267 270 275 283 293 300 305 309 310 311 313
259 258 259 263 266 264 265 264 262 257 257 262 268 273 281 290 297 303 307 308 308 308
261 259 258 260 261 261 262 263 261 256 255 259 263 269 277 285 292 299 302 304 305 306
262 261 259 258 257 258 260 260 258 253 254 258 262 267 276 283 289 296 301 303 303 306
261 260 260 257 258 257 257 257 257 254 254 256 261 266 273 279 286 295 300 303 305 307
263 267 264 261 258 256 255 254 251 250 252 255 258 264 268 274 284 292 298 302 305 308
267 265 261 261 256 254 253 252 251 249 248 250 258 259 260 271 281 290 297 301 305 308
265 262 262 260 255 250 249 252 249 247 246 247 252 248 249 262 279 289 298 303 308 311
264 263 262 258 255 252 248 245 245 243 244 246 248 240 242 256 278 289 296 304 309 314
262 260 258 256 252 250 250 247 245 245 246 247 248 244 246 257 277 288 297 304 312 316
265 263 261 257 255 255 252 252 250 249 249 248 247 245 251 261 278 288 296 302 311 314
268 265 264 262 262 262 260 257 254 253 251 249 248 254 253 262 278 286 292 300 306 314